Starlink 33611

operational
NORAD ID: 63279 Int'l Des: 2025-053 Owner: SPXS Country: US Constellation: starlink
LEOCIRCULAR

About Starlink 33611

Description loading...

Live Position

Loading 3D Globe...

Upcoming Passes

Altitude History

Altitude vs Time

uPlot chart will show altitude changes over time

Two-Line Element Set

1 63279U 25053Q 25353.25206752 .00015721 00000-0 57929-3 0 9990
2 63279 43.0023 332.4016 0001206 268.4151 91.6563 15.27597768 44045
Epoch: Dec 19, 2025 • Age: 13 hours

Current Status

Altitude 483.4 km
Velocity 7.63 km/s
Sub-Earth Point 25.31°N, 102.09°E
Launch Date Mar 15, 2025
Age 0.7 years
Type internet

Technical Details

Classification Payload
Mass 575.00 kg
Dry Mass 530.00 kg
Total Mass 575.00 kg
Length 0.30 m
Diameter 4.10 m
Span 29.00 m
Shape Box + pan
Manufacturer SPXS
Bus Type Starlink V2MO
Phase Status In Orbit
Owner/State SPXS/US

Large Constellations

Loading constellations...